User: anonymous
Location: Walnut Point State Park
(39.6958°N, 88.0345°W)
Time: 02:02:22
(UTC-05:00)
Language:

ATLAS 3B R/B - Orbit

View from above orbital plane
View from above orbital plane
View from above satellite
View from above satellite

Ground track
Ground track

The orbit data is extracted from the following two-line orbital elements,

1 28538U 05004B   14206.11587997 0.00000030  00000-0  45636-4 0    09
2 28538  63.8200  84.6793 0217000 244.8022 115.1978 13.43028020    01
Epoch (UTC): 25 July 2014 02:46:52
Eccentricity: 0.0217000
inclination: 63.8200°
perigee height: 936 km
apogee height: 1260 km
right ascension of ascending node: 84.6793°
argument of perigee: 244.8022°
revolutions per day: 13.43028020
mean anomaly at epoch: 115.1978°
orbit number at epoch: 0

The dashed part of the orbit path shows where the satellite is in the earth's shadow,  

DLR